Tiempo atmosférico en la estación meteorológica de Aguilar de la Frontera, Córdoba (305 m.)



Fecha
DESCASC
Temp. máxima en grados centígrados (hora)
DESCASC
Temp. mínima en grados centígrados (hora)
DESCASC
Temp. media en grados centígrados
DESCASC
Racha de viento máxima en m/sg (hora)
DESCASC
Velocidad máxima media en intervalos de 10 minutos(hora)
DESCASC
Precipitaciones diarias en mm
DESCASC
Precipitaciones de 00:00 a 06:00 en mm
DESCASC
Precipitaciones de 06:00 a 12:00 en mm
DESCASC
Precipitaciones de 12:00 a 18:00 en mm
DESCASC
Precipitaciones de 18:00 a 24:00 en mm
DESCASC
21-02-2019 19.9 (16:10) 5.4 (06:50) 12.6 7.78 (11:10) 5.28 (11:20) 0 0 0 0 0
20-02-2019 19 (16:20) 6 (07:40) 12.5 6.67 (22:00) 4.17 (01:10) 0 0 0 0 0
19-02-2019 16.9 (14:20) 7.3 (08:00) 12.1 5.83 (14:50) 3.61 (08:20) 0 0 0 0 0
18-02-2019 17.1 (14:10) 4.2 (07:00) 10.7 6.67 (00:30) 5 (00:30) 0 0 0 0 0
17-02-2019 19.3 (15:20) 2.7 (00:00) 11 8.61 (20:50) 5.56 (21:00) 0 0 0 0 0
16-02-2019 18.8 (15:30) 4.8 (00:00) 11.8 7.22 (16:30) 4.44 (17:10) 0 0 0 0 0
15-02-2019 19.8 (16:10) 5.2 (00:00) 12.5 6.94 (20:40) 5.28 (20:40) 0 0 0 0 0
14-02-2019 18.6 (14:20) 5.2 (00:00) 11.9 8.89 (17:00) 5.56 (16:30) 0 0 0 0 0
13-02-2019 19.2 (15:30) 4.2 (00:00) 11.7 6.67 (14:20) 4.44 (02:10) 0 0 0 0 0
12-02-2019 18.1 (13:50) 5.5 (00:00) 11.8 6.67 (12:00) 4.17 (20:40) 0 0 0 0 0
11-02-2019 17.1 (15:10) 8 (00:00) 12.6 -- (--) -- (--) -- -- 0 0 0
10-02-2019 16.1 (17:10) 3.8 (00:00) 10 -- (--) -- (--) -- -- -- -- --
09-02-2019 17.2 (16:40) 2.9 (00:00) 10.1 -- (--) -- (--) -- -- -- -- --
08-02-2019 18.5 (15:10) 3.6 (00:00) 11 -- (--) -- (--) -- -- -- -- --
07-02-2019 18.7 (16:10) 4.1 (00:00) 11.4 4.72 (06:20) 3.61 (06:20) 0 0 0 0 0
06-02-2019 21 (15:10) 2.9 (00:00) 12 5 (15:50) 3.61 (16:50) 0 0 0 0 0
05-02-2019 18.5 (16:40) 1.3 (00:00) 9.9 5.83 (15:10) 3.06 (15:30) 0 0 0 0 0
04-02-2019 14.6 (16:40) -1.9 (-00:0) 6.4 5.83 (17:00) 3.33 (16:50) 0 0 0 0 0
03-02-2019 11.5 (16:40) -1.9 (-00:0) 4.8 8.06 (13:30) 5.28 (13:50) 0 0 0 0 0
02-02-2019 11.9 (16:20) 2.4 (00:00) 7.1 12.5 (04:40) 7.78 (17:00) 0 0 0 0 0
01-02-2019 12.8 (14:00) 6.2 (00:00) 9.5 20.83 (18:30) 10.83 (06:00) 24.4 15.2 8.4 0 0.8
31-01-2019 15.5 (15:50) 10.6 (00:00) 13.1 15 (15:20) 8.61 (16:30) 7.6 5 1 0 1.6
30-01-2019 14 (16:40) 8.8 (00:00) 11.4 10.56 (17:40) 6.67 (17:30) 2 0 0 0 2
29-01-2019 12.8 (15:30) 6.2 (00:00) 9.5 8.61 (13:40) 6.11 (13:40) 0 0 0 0 0
28-01-2019 13.7 (16:00) 0.8 (00:00) 7.2 9.72 (17:10) 6.11 (15:30) 0 0 0 0 0
27-01-2019 13.3 (14:50) 3.8 (00:00) 8.6 8.06 (14:40) 5.28 (15:10) 0 0 0 0 0
26-01-2019 19.4 (16:20) 2.9 (00:00) 11.1 4.44 (23:10) 2.5 (17:20) 0 0 0 0 0
25-01-2019 18.1 (15:20) 4.3 (00:00) 11.2 7.78 (11:10) 5.28 (11:20) 0 0 0 0 0
24-01-2019 16.2 (17:50) 8 (00:00) 12.1 7.78 (01:10) 5.28 (01:10) 0 0 0 0 0

Gráficas

Temp. máximas Temp. mínimas Temp. medias Precipitaciones Rachas de viento máximas Velocidades máximas media en intervalos de 10 minutos

Datos horarios

Fecha y hora oficial Temperatura (ºC) Velocidad del viento (km/h) Dirección del viento Racha (km/h) Dirección de racha Precipitación (mm) Presión (hPa) Tendencia (hPa) Humedad (%)
2019-02-22 23:00:00 10.8 4 Este 12 Este 0 -- -- 63
2019-02-22 22:00:00 10.5 8 Sudeste 14 Sudeste 0 -- -- 65
2019-02-22 21:00:00 13.1 12 Sudeste 17 Este 0 -- -- 53
2019-02-22 20:00:00 14 12 Sudeste 17 Sudeste 0 -- -- 51
2019-02-22 19:00:00 17.2 6 Sur 14 Sur 0 -- -- 43
2019-02-22 18:00:00 19.9 10 Sudoeste 22 Sudoeste 0 -- -- 37
2019-02-22 17:00:00 21.6 8 Sur 17 Sur 0 -- -- 32
2019-02-22 16:00:00 21.8 9 Sur 27 Sur 0 -- -- 33
2019-02-22 15:00:00 21.4 12 Sur 21 Sudeste 0 -- -- 29
2019-02-22 14:00:00 20.4 8 Sudeste 19 Sudeste 0 -- -- 37
2019-02-22 13:00:00 19.2 11 Sudeste 20 Sudeste 0 -- -- 37
2019-02-22 12:00:00 17.6 10 Sur 18 Sudeste 0 -- -- 42
2019-02-22 11:00:00 14.5 3 Sudoeste 17 Sudeste 0 -- -- 55
2019-02-22 10:00:00 11.6 8 Sudeste 14 Sudeste 0 -- -- 62
2019-02-22 09:00:00 7.2 6 Este 14 Este 0 -- -- 82
2019-02-22 08:00:00 5.5 6 Este 13 Este 0 -- -- 86
2019-02-22 07:00:00 6 6 Este 15 Este 0 -- -- 83
2019-02-22 06:00:00 7 3 Nordeste 23 Sudeste 0 -- -- 77
2019-02-22 05:00:00 7.7 15 Sudeste 21 Este 0 -- -- 77
2019-02-22 04:00:00 7.8 12 Sudeste 20 Este 0 -- -- 75
2019-02-22 03:00:00 8.3 13 Sudeste 25 Sudeste 0 -- -- 79
2019-02-22 02:00:00 9.1 18 Sudeste 26 Sudeste 0 -- -- 75
2019-02-22 01:00:00 9.4 21 Sudeste 29 Sudeste 0 -- -- 79
2019-02-22 00:00:00 9.2 14 Sudeste 22 Sudeste 0 -- -- 81
2019-02-21 23:00:00 9.9 13 Sudeste 22 Sudeste 0 -- -- 81
2019-02-21 22:00:00 9.7 9 Sudeste 14 Sudeste 0 -- -- 82
2019-02-21 21:00:00 10.9 7 Sudeste 17 Sudeste 0 -- -- 75
2019-02-21 20:00:00 12.2 6 Sudeste 14 Sur 0 -- -- 70
2019-02-21 19:00:00 14.2 7 Sur 21 Sur 0 -- -- 63
2019-02-21 18:00:00 17.2 11 Sur 21 Sur 0 -- -- 54
2019-02-21 17:00:00 18.9 10 Sur 18 Sudoeste 0 -- -- 48
2019-02-21 16:00:00 19.7 8 Sur 16 Sur 0 -- -- 37
2019-02-21 15:00:00 19.2 7 Sudeste 22 Sur 0 -- -- 41
2019-02-21 14:00:00 18.1 10 Sudeste 24 Sudeste 0 -- -- 46
2019-02-21 13:00:00 16.9 14 Sudeste 26 Sudeste 0 -- -- 50
2019-02-21 12:00:00 15.7 13 Sudeste 28 Sudeste 0 -- -- 55
2019-02-21 11:00:00 13.9 15 Sudeste 27 Sudeste 0 -- -- 55
2019-02-21 10:00:00 11.8 9 Sur 20 Sur 0 -- -- 68
2019-02-21 09:00:00 7.5 3 Nordeste 10 Este 0 -- -- 86
2019-02-21 08:00:00 6.7 8 Este 12 Este 0 -- -- 87
2019-02-21 07:00:00 5.4 7 Este 12 Este 0 -- -- 91
2019-02-21 06:00:00 7.2 8 Este 13 Sudeste 0 -- -- 85
2019-02-21 05:00:00 6.9 9 Este 14 Este 0 -- -- 87
2019-02-21 04:00:00 6.9 6 Este 9 Este 0 -- -- 87
2019-02-21 03:00:00 8 6 Este 18 Este 0 -- -- 83
2019-02-21 02:00:00 8.9 13 Este 19 Sudeste 0 -- -- 81
2019-02-21 01:00:00 8.7 5 Sudeste 15 Sudeste 0 -- -- 82
2019-02-21 00:00:00 8.8 10 Sudeste 20 Sudeste 0 -- -- 84
2019-02-20 23:00:00 9.5 9 Sudeste 21 Sudeste 0 -- -- 82
2019-02-20 22:00:00 10.5 15 Sudeste 24 Sudeste 0 -- -- 79
2019-02-20 21:00:00 11.2 15 Sudeste 21 Sudeste 0 -- -- 74
2019-02-20 20:00:00 12.7 12 Sudeste 19 Sur 0 -- -- 66
2019-02-20 19:00:00 14.6 6 Sur 14 Sudoeste 0 -- -- 56
2019-02-20 18:00:00 17.4 10 Sudoeste 14 Sudoeste 0 -- -- 49
2019-02-20 17:00:00 18.4 8 Sur 21 Sur 0 -- -- 44
2019-02-20 16:00:00 18.8 6 Sur 16 Sur 0 -- -- 46
2019-02-20 15:00:00 18.2 8 Sudeste 17 Sudeste 0 -- -- 47
2019-02-20 14:00:00 16.9 5 Nordeste 19 Sudeste 0 -- -- 55
2019-02-20 13:00:00 16.3 8 Sudeste 21 Sudeste 0 -- -- 59
2019-02-20 12:00:00 14.9 11 Sur 19 Sur 0 -- -- 64
2019-02-20 11:00:00 13.3 4 Este 10 Este 0 -- -- 67
2019-02-20 10:00:00 9.5 0 Calma 5 Noroeste 0 -- -- 82
2019-02-20 09:00:00 6.5 3 Este 7 Este 0 -- -- 92
2019-02-20 08:00:00 6.1 3 Nordeste 8 Este 0 -- -- 90
2019-02-20 07:00:00 6.3 5 Sudeste 16 Sudeste 0 -- -- 89
2019-02-20 06:00:00 7.3 12 Sudeste 19 Sudeste 0 -- -- 88
2019-02-20 05:00:00 7.8 15 Sudeste 18 Sudeste 0 -- -- 89
2019-02-20 04:00:00 8.2 14 Sudeste 18 Sudeste 0 -- -- 88
2019-02-20 03:00:00 8.3 14 Sudeste 20 Sudeste 0 -- -- 89
2019-02-20 02:00:00 8.7 13 Sudeste 21 Sudeste 0 -- -- 89
2019-02-20 01:00:00 7.8 10 Sudeste 16 Sudeste 0 -- -- 89
2019-02-20 00:00:00 7.5 5 Sudeste 8 Sudeste 0 -- -- 88
2019-02-19 23:00:00 9.1 5 Oeste 14 Sudeste 0 -- -- 85
2019-02-19 22:00:00 9 8 Este 17 Sudeste 0 -- -- 87
2019-02-19 21:00:00 10 4 Este 6 Sudeste 0 -- -- 81
2019-02-19 20:00:00 11.4 3 Este 5 Este 0 -- -- 76
2019-02-19 19:00:00 14.5 3 Oeste 4 Oeste 0 -- -- 62
2019-02-19 18:00:00 16.4 2 Oeste 9 Oeste 0 -- -- 55
2019-02-19 17:00:00 16.6 6 Noroeste 14 Noroeste 0 -- -- 57
2019-02-19 16:00:00 16.6 6 Oeste 19 Oeste 0 -- -- 58
2019-02-19 15:00:00 16.1 13 Oeste 21 Oeste 0 -- -- 60
2019-02-19 14:00:00 16.4 10 Oeste 15 Oeste 0 -- -- 59
2019-02-19 13:00:00 15.9 5 Noroeste 9 Noroeste 0 -- -- 57
2019-02-19 12:00:00 14.6 3 Sudeste 11 Sur 0 -- -- 61
2019-02-19 11:00:00 12.7 5 Sur 15 Sudeste 0 -- -- 74
2019-02-19 10:00:00 9.7 11 Sudeste 15 Sudeste 0 -- -- 81
2019-02-19 09:00:00 8.3 9 Sudeste 17 Sudeste 0 -- -- 85
2019-02-19 08:00:00 7.3 11 Sudeste 13 Sudeste 0 -- -- 86
2019-02-19 07:00:00 8.8 9 Sudeste 13 Sur 0 -- -- 81
2019-02-19 06:00:00 8.8 7 Sudeste 10 Sudeste 0 -- -- 82
2019-02-19 05:00:00 9 0 Calma 10 Sudeste 0 -- -- 80
2019-02-19 04:00:00 8.9 10 Sudeste 14 Este 0 -- -- 81
2019-02-19 03:00:00 8.9 7 Sudeste 9 Sudeste 0 -- -- 82
2019-02-19 02:00:00 8.8 2 Sudeste 11 Sudeste 0 -- -- 82
2019-02-19 01:00:00 8.8 10 Sudeste 13 Sudeste 0 -- -- 78
2019-02-19 00:00:00 8.9 4 Sudeste 12 Sudeste 0 -- -- 79
2019-02-18 23:00:00 9.5 10 Sudeste 13 Sudeste 0 -- -- 75
2019-02-18 22:00:00 9.4 11 Sudeste 13 Sudeste 0 -- -- 76
2019-02-18 21:00:00 9.6 8 Sudeste 12 Sur 0 -- -- 74
2019-02-18 20:00:00 11.7 9 Sur 13 Sur 0 -- -- 65
2019-02-18 19:00:00 13.1 4 Sudeste 7 Oeste 0 -- -- 63
2019-02-18 18:00:00 15.6 3 Oeste 5 Norte 0 -- -- 53
2019-02-18 17:00:00 16.1 2 Oeste 13 Sudoeste 0 -- -- 53
2019-02-18 16:00:00 16.3 5 Sudoeste 18 Norte 0 -- -- 51
2019-02-18 15:00:00 16.8 6 Oeste 19 Norte 0 -- -- 45
2019-02-18 14:00:00 17 6 Norte 14 Noroeste 0 -- -- 44
2019-02-18 13:00:00 15.1 4 Nordeste 10 Nordeste 0 -- -- 51
2019-02-18 12:00:00 13.4 8 Norte 12 Noroeste 0 -- -- 61
2019-02-18 11:00:00 11.2 3 Noroeste 9 Noroeste 0 -- -- 69
2019-02-18 10:00:00 8.2 0 Calma 10 Este 0 -- -- 82
2019-02-18 09:00:00 6.3 3 Este 9 Este 0 -- -- 87
2019-02-18 08:00:00 4.9 7 Este 14 Este 0 -- -- 92
2019-02-18 07:00:00 4.2 4 Este 12 Este 0 -- -- 91
2019-02-18 06:00:00 5.2 4 Este 6 Este 0 -- -- 88
2019-02-18 05:00:00 5.8 4 Este 6 Este 0 -- -- 85
2019-02-18 04:00:00 6.3 0 Calma 7 Este 0 -- -- 83
2019-02-18 03:00:00 8 4 Sudeste 16 Sudeste 0 -- -- 78
2019-02-18 02:00:00 7.7 9 Sudeste 18 Sudeste 0 -- -- 86
2019-02-18 01:00:00 8.6 16 Sudeste 24 Sudeste 0 -- -- 84
2019-02-18 00:00:00 9.1 8 Sudeste 20 Sur 0 -- -- 83
2019-02-17 23:00:00 9.9 13 Sudeste 26 Sur 0 -- -- 79
2019-02-17 22:00:00 10.5 17 Sudeste 27 Sudeste 0 -- -- 76
2019-02-17 21:00:00 11.4 20 Sudeste 31 Sudeste 0 -- -- 73
2019-02-17 20:00:00 12.2 14 Sudeste 23 Sudeste 0 -- -- 68
2019-02-17 19:00:00 14.1 13 Sudeste 24 Sur 0 -- -- 58
2019-02-17 18:00:00 17.3 15 Sur 23 Sur 0 -- -- 51
2019-02-17 17:00:00 18.6 13 Sur 24 Sudoeste 0 -- -- 46
2019-02-17 16:00:00 19.1 12 Sur 23 Sudoeste 0 -- -- 46
2019-02-17 15:00:00 19.1 7 Sur 18 Sur 0 -- -- 46
2019-02-17 14:00:00 18.5 11 Sur 21 Sur 0 -- -- 47
2019-02-17 13:00:00 17.2 6 Sudeste 19 Sudeste 0 -- -- 49
2019-02-17 12:00:00 15.6 6 Sudeste 20 Sudeste 0 -- -- 50
2019-02-17 11:00:00 12.6 8 Este 16 Este 0 -- -- 56
2019-02-17 10:00:00 9 8 Este 15 Este 0 -- -- 67
2019-02-17 09:00:00 4.8 2 Nordeste 10 Sudeste 0 -- -- 90
2019-02-17 08:00:00 3 2 Nordeste 13 Este 0 -- -- 91
2019-02-17 07:00:00 4 2 Este 12 Sudeste 0 -- -- 89
2019-02-17 06:00:00 5 5 Este 15 Sudeste 0 -- -- 90
2019-02-17 05:00:00 4.9 3 Sudeste 9 Sudoeste 0 -- -- 89
2019-02-17 04:00:00 6 3 Este 18 Sudeste 0 -- -- 88
2019-02-17 03:00:00 7.6 10 Sudeste 16 Sudeste 0 -- -- 80
2019-02-17 02:00:00 8 7 Este 19 Este 0 -- -- 83
2019-02-17 01:00:00 7.2 9 Este 13 Este 0 -- -- 87
2019-02-17 00:00:00 7.2 4 Nordeste 6 Nordeste 0 -- -- 86
2019-02-16 23:00:00 9.1 4 Sudeste 22 Sudeste 0 -- -- 80
2019-02-16 22:00:00 10.3 13 Sudeste 20 Sudeste 0 -- -- 76
2019-02-16 21:00:00 11.3 10 Sur 15 Sur 0 -- -- 69
2019-02-16 20:00:00 12.3 10 Sur 17 Sur 0 -- -- 65
2019-02-16 19:00:00 13.2 11 Sur 24 Sur 0 -- -- 67
2019-02-16 18:00:00 16 15 Sur 25 Sudoeste 0 -- -- 58
2019-02-16 17:00:00 17.7 14 Sur 26 Sur 0 -- -- 53
2019-02-16 16:00:00 18.4 12 Sudoeste 25 Sur 0 -- -- 51
2019-02-16 15:00:00 18.5 6 Oeste 13 Oeste 0 -- -- 50
2019-02-16 14:00:00 17.3 5 Oeste 14 Oeste 0 -- -- 47
2019-02-16 13:00:00 16.4 5 Sudoeste 12 Sudeste 0 -- -- 49
2019-02-16 12:00:00 13.9 3 Noroeste 8 Sur 0 -- -- 55
2019-02-16 11:00:00 12.2 3 Oeste 6 Sudoeste 0 -- -- 62
2019-02-16 10:00:00 8.4 0 Calma 8 Sudoeste 0 -- -- 93
2019-02-16 09:00:00 5.1 3 Nordeste 10 Este 0 -- -- 95
2019-02-16 08:00:00 5 3 Este 8 Sudeste 0 -- -- 93
2019-02-16 07:00:00 5.7 4 Sudeste 8 Sudeste 0 -- -- 94
2019-02-16 06:00:00 6 6 Sudeste 9 Sudeste 0 -- -- 93
2019-02-16 05:00:00 6.7 5 Este 12 Este 0 -- -- 92
2019-02-16 04:00:00 6.6 4 Sudeste 6 Sudeste 0 -- -- 92
2019-02-16 03:00:00 6.6 2 Norte 6 Este 0 -- -- 90
2019-02-16 02:00:00 8 7 Sudeste 12 Sudeste 0 -- -- 90
2019-02-16 01:00:00 7.7 6 Sudeste 13 Sudeste 0 -- -- 90
2019-02-16 00:00:00 8.1 5 Este 7 Este 0 -- -- 86
2019-02-15 23:00:00 9.5 3 Norte 12 Sudeste 0 -- -- 83
2019-02-15 22:00:00 9.8 8 Sudeste 14 Sudeste 0 -- -- 82
2019-02-15 21:00:00 10.9 9 Sudeste 25 Sudeste 0 -- -- 78
2019-02-15 20:00:00 11.9 15 Sudeste 23 Sudeste 0 -- -- 73
2019-02-15 19:00:00 13.6 10 Sur 17 Sur 0 -- -- 68
2019-02-15 18:00:00 16.3 9 Sur 16 Sur 0 -- -- 59
2019-02-15 17:00:00 18.5 11 Sudoeste 20 Oeste 0 -- -- 53
2019-02-15 16:00:00 19.2 3 Sudeste 13 Norte 0 -- -- 48
2019-02-15 15:00:00 18.3 4 Este 15 Sudeste 0 -- -- 49
2019-02-15 14:00:00 17.6 6 Este 17 Este 0 -- -- 50
2019-02-15 13:00:00 16.8 6 Sudeste 11 Este 0 -- -- 54
2019-02-15 12:00:00 14.4 8 Noroeste 15 Este 0 -- -- 61
2019-02-15 11:00:00 12.4 9 Este 13 Este 0 -- -- 66
2019-02-15 10:00:00 11.1 5 Este 15 Sudeste 0 -- -- 72
2019-02-15 09:00:00 6.4 3 Este 8 Este 0 -- -- 88
2019-02-15 08:00:00 5.8 3 Este 15 Este 0 -- -- 88
2019-02-15 07:00:00 5.8 0 Calma 10 Nordeste 0 -- -- 88
2019-02-15 06:00:00 6.9 6 Este 15 Este 0 -- -- 85
2019-02-15 05:00:00 6.7 8 Este 14 Este 0 -- -- 87
2019-02-15 04:00:00 7.2 8 Sudeste 20 Sudeste 0 -- -- 85
2019-02-15 03:00:00 8.5 14 Sudeste 23 Sudeste 0 -- -- 80
2019-02-15 02:00:00 7.2 9 Sudeste 15 Este 0 -- -- 85
2019-02-15 01:00:00 7.8 5 Este 13 Sudeste 0 -- -- 84
2019-02-15 00:00:00 8.1 8 Sudeste 14 Sudeste 0 -- -- 83
2019-02-14 23:00:00 8 10 Sudeste 14 Este 0 -- -- 83
2019-02-14 22:00:00 8.6 9 Sudeste 20 Sudeste 0 -- -- 82
2019-02-14 21:00:00 10 15 Sudeste 27 Sudeste 0 -- -- 77
2019-02-14 20:00:00 10.8 15 Sudeste 23 Sudeste 0 -- -- 72
2019-02-14 19:00:00 12.8 8 Sudeste 28 Sur 0 -- -- 63
2019-02-14 18:00:00 15.4 18 Sur 31 Sur 0 -- -- 54
2019-02-14 17:00:00 16.7 19 Sur 32 Sur 0 -- -- 52
2019-02-14 16:00:00 17.8 15 Sur 26 Sudoeste 0 -- -- 50
2019-02-14 15:00:00 18 14 Sur 26 Sur 0 -- -- 49
2019-02-14 14:00:00 18.3 14 Sur 25 Sur 0 -- -- 42
2019-02-14 13:00:00 16.7 11 Sudeste 30 Este 0 -- -- 46
2019-02-14 12:00:00 15.1 17 Sudeste 28 Sudeste 0 -- -- 48
2019-02-14 11:00:00 13.5 18 Sudeste 30 Sudeste 0 -- -- 52
2019-02-14 10:00:00 11.4 13 Sudeste 25 Sudeste 0 -- -- 59
2019-02-14 09:00:00 7.2 8 Sudeste 14 Sudeste 0 -- -- 77
2019-02-14 08:00:00 5.6 9 Sudeste 17 Sudeste 0 -- -- 80
2019-02-14 07:00:00 5.4 12 Sudeste 16 Sudeste 0 -- -- 83
2019-02-14 06:00:00 5.6 6 Este 13 Este 0 -- -- 82
2019-02-14 05:00:00 6.6 5 Este 16 Sudeste 0 -- -- 77
2019-02-14 04:00:00 7.9 8 Sudeste 16 Sudeste 0 -- -- 73
2019-02-14 03:00:00 7.2 5 Sudeste 13 Sudeste 0 -- -- 78
2019-02-14 02:00:00 6.7 4 Sudeste 17 Sudeste 0 -- -- 79
2019-02-14 01:00:00 7.4 13 Sudeste 18 Sudeste 0 -- -- 78
2019-02-14 00:00:00 7.8 12 Sudeste 18 Sudeste 0 -- -- 79
2019-02-13 23:00:00 8.1 13 Sudeste 18 Sudeste 0 -- -- 84
2019-02-13 22:00:00 8.4 10 Sudeste 17 Sudeste 0 -- -- 82
2019-02-13 21:00:00 9.1 8 Sudeste 10 Sudeste 0 -- -- 78
2019-02-13 20:00:00 10.8 2 Este 16 Sudeste 0 -- -- 70
2019-02-13 19:00:00 13 10 Sur 24 Sur 0 -- -- 61
2019-02-13 18:00:00 16 12 Sur 24 Sur 0 -- -- 53
2019-02-13 17:00:00 17.9 13 Sur 23 Sudoeste 0 -- -- 48
2019-02-13 16:00:00 19.1 10 Sur 16 Sur 0 -- -- 42
2019-02-13 15:00:00 18.7 6 Sur 24 Sudeste 0 -- -- 41
2019-02-13 14:00:00 17.8 7 Sur 18 Sudeste 0 -- -- 38
2019-02-13 13:00:00 16.7 9 Sudeste 19 Sur 0 -- -- 41
2019-02-13 12:00:00 15.1 -- -- -- -- -- -- -- 46
2019-02-13 11:00:00 11.9 -- -- -- -- -- -- -- 72
2019-02-13 10:00:00 9.6 -- -- -- -- -- -- -- 87
2019-02-13 09:00:00 6.1 -- -- -- -- -- -- -- 97
2019-02-13 08:00:00 4.6 -- -- -- -- -- -- -- 96
2019-02-13 07:00:00 4.4 -- -- -- -- -- -- -- 94
2019-02-13 06:00:00 6 4 Este 11 Este 0 -- -- 92
2019-02-13 05:00:00 7.1 9 Este 16 Sudeste 0 -- -- 89
2019-02-13 04:00:00 7.5 10 Sudeste 16 Sudeste 0 -- -- 88
2019-02-13 03:00:00 8.3 12 Sudeste 21 Sudeste 0 -- -- 87
2019-02-13 02:00:00 8.5 14 Sudeste 20 Sudeste 0 -- -- 85
2019-02-13 01:00:00 8.3 12 Sudeste 18 Sudeste 0 -- -- 86
2019-02-13 00:00:00 9.1 12 Sudeste 17 Sudeste 0 -- -- 83
2019-02-12 23:00:00 9.6 10 Sudeste 17 Sudeste 0 -- -- 82
2019-02-12 22:00:00 10.1 10 Sudeste 20 Sur 0 -- -- 80
2019-02-12 21:00:00 10.9 12 Sur 22 Sur 0 -- -- 76
2019-02-12 20:00:00 12.3 7 Sur 22 Sur 0 -- -- 71
2019-02-12 19:00:00 13.8 14 Sur 22 Sur 0 -- -- 63
2019-02-12 18:00:00 14.9 12 Sur 21 Sur 0 -- -- 59
2019-02-12 17:00:00 15.8 10 Sur 19 Sur 0 -- -- 58
2019-02-12 16:00:00 16.1 5 Norte 22 Sudeste 0 -- -- 61
2019-02-12 15:00:00 17.3 10 Sur 21 Sur 0 -- -- 55
2019-02-12 14:00:00 17.8 8 Sudeste 19 Sudeste 0 -- -- 56
2019-02-12 13:00:00 17.3 9 Sudeste 18 Sur 0 -- -- 57
2019-02-12 12:00:00 16.1 13 Sudeste 24 Sudeste 0 -- -- 59
2019-02-12 11:00:00 14.4 13 Sudeste 21 Sudeste 0 -- -- 64
2019-02-12 10:00:00 10.8 10 Este 17 Este 0 -- -- 78
2019-02-12 09:00:00 8.8 12 Este 19 Sudeste 0 -- -- 87
2019-02-12 08:00:00 6.7 12 Este 16 Sudeste 0 -- -- 95
2019-02-12 07:00:00 5.6 10 Sudeste 13 Sudeste 0 -- -- 95
2019-02-12 06:00:00 5.5 6 Sudeste 9 Este 0 -- -- 94
2019-02-12 05:00:00 6.2 4 Sudeste 8 Este 0 -- -- 94
2019-02-12 04:00:00 6.2 4 Este 8 Sudeste 0 -- -- 94
2019-02-12 03:00:00 6.5 4 Nordeste 12 Sudeste 0 -- -- 93
2019-02-12 02:00:00 6.5 0 Calma 8 Este 0 -- -- 92
2019-02-12 01:00:00 7.4 5 Sudeste 9 Este 0 -- -- 91
2019-02-12 00:00:00 8 0 Calma 6 Este 0 -- -- 89
2019-02-11 23:00:00 8.1 4 Este 9 Este 0 -- -- 88
2019-02-11 22:00:00 8.3 4 Este 8 Este 0 -- -- 86
2019-02-11 21:00:00 8.7 4 Este 6 Este 0 -- -- 86
2019-02-11 20:00:00 11.4 3 Este 5 Este 0 -- -- 74
2019-02-11 19:00:00 14.4 3 Norte 11 Norte 0 -- -- 63
2019-02-11 18:00:00 16.4 9 Norte 15 Norte 0 -- -- 58
2019-02-11 17:00:00 16.4 7 Norte 18 Norte 0 -- -- 59
2019-02-11 16:00:00 16.8 10 Noroeste 17 Norte 0 -- -- 60
2019-02-11 15:00:00 16.8 5 Noroeste 11 Noroeste 0 -- -- 59
2019-02-11 14:00:00 15.6 6 Norte 13 Oeste 0 -- -- 72
2019-02-11 13:00:00 15 6 Este 9 Este 0 -- -- 70
2019-02-11 12:00:00 13.7 3 Sur 7 Este 0 -- -- 78
2019-02-11 11:00:00 12.2 3 Sudeste 10 Sudeste 0 -- -- 88
2019-02-11 10:00:00 11 5 Sudeste 9 Sudeste 0 -- -- 92
2019-02-11 09:00:00 10.3 3 Sur 14 Este 0 -- -- 94
2019-02-11 08:00:00 10.2 9 Sudeste 12 Sudeste 0 -- -- 93
2019-02-11 07:00:00 10.4 3 Sudeste 10 Sudeste 0 -- -- 92
2019-02-11 06:00:00 10.4 6 Sudeste 9 Sudeste 0 -- -- 92
2019-02-11 05:00:00 10.6 2 Sudeste 9 Sudoeste 0 -- -- 89
2019-02-11 04:00:00 10.7 5 Sudeste 8 Sudeste 0 -- -- 85
2019-02-11 03:00:00 10.7 3 Sur 6 Sudoeste 0 -- -- 84
2019-02-11 02:00:00 10.8 3 Sudeste 6 Sudoeste 0 -- -- 84
2019-02-11 01:00:00 10.8 3 Sudoeste 8 Sur 0 -- -- 83
2019-02-11 00:00:00 10.8 0 Calma 6 Sudoeste 0 -- -- 82
2019-02-10 23:00:00 10.9 4 Sudeste 6 Sur 0 -- -- 82
2019-02-10 22:00:00 11.1 4 Sudeste 6 Sudeste 0 -- -- 80
2019-02-10 21:00:00 11.4 2 Sudeste 4 Oeste 0 -- -- 81
2019-02-10 20:00:00 11.8 0 Calma 4 Oeste 0 -- -- 75
2019-02-10 19:00:00 13.3 4 Oeste 6 Oeste 0 -- -- 69
2019-02-10 18:00:00 14.4 5 Oeste 6 Oeste 0 -- -- 61
2019-02-10 17:00:00 15.3 3 Sur 11 Norte 0 -- -- 58
2019-02-10 16:00:00 15 3 Norte 17 Noroeste 0 -- -- 60
2019-02-10 15:00:00 14.4 8 Noroeste 20 Oeste 0 -- -- 65
2019-02-10 14:00:00 13.1 6 Oeste 14 Oeste 0 -- -- 74
2019-02-10 13:00:00 12.6 6 Oeste 11 Oeste 0 -- -- 75
2019-02-10 12:00:00 12.7 6 Oeste 10 Oeste 0 -- -- 74
2019-02-10 11:00:00 10.9 3 Sur 6 Sur 0 -- -- 80
2019-02-10 10:00:00 9.4 5 Sudeste 15 Sudeste 0 -- -- 88
2019-02-10 09:00:00 7.2 13 Sudeste 15 Sudeste 0 -- -- 94
2019-02-10 08:00:00 6.6 10 Sudeste 13 Sudeste 0 -- -- 94
2019-02-10 07:00:00 6.7 2 Sudeste 10 Sudoeste 0 -- -- 92
2019-02-10 06:00:00 7.4 5 Sudoeste 10 Oeste 0 -- -- 95
2019-02-10 05:00:00 6.3 3 Sudeste 6 Sudeste 0 -- -- 97
2019-02-10 04:00:00 4.1 0 Calma 5 Sudeste 0 -- -- 95
2019-02-10 03:00:00 4.5 0 Calma 8 Este 0 -- -- 93
2019-02-10 02:00:00 5.5 0 Calma 10 Sudeste 0 -- -- 94
2019-02-10 01:00:00 4.9 2 Sudeste 8 Sudeste 0 -- -- 92
2019-02-10 00:00:00 5.7 3 Sudeste 8 Sudeste 0 -- -- 90
2019-02-09 23:00:00 6.7 0 Calma 3 Sur 0 -- -- 85
2019-02-09 22:00:00 8.1 0 Calma 5 Sudoeste 0 -- -- 80
2019-02-09 21:00:00 9.2 4 Sur 8 Sudoeste 0 -- -- 79
2019-02-09 20:00:00 10.6 5 Sur 8 Sur 0 -- -- 72
2019-02-09 19:00:00 13.3 5 Sudoeste 14 Oeste 0 -- -- 62
2019-02-09 18:00:00 16.3 8 Oeste 17 Oeste 0 -- -- 56
2019-02-09 17:00:00 17 11 Oeste 17 Oeste 0 -- -- 45
2019-02-09 16:00:00 17.1 10 Oeste 17 Oeste 0 -- -- 50
2019-02-09 15:00:00 17 8 Oeste 14 Oeste 0 -- -- 54
2019-02-09 14:00:00 15.9 8 Noroeste 12 Noroeste 0 -- -- 61
2019-02-09 13:00:00 15.2 3 Sudoeste 10 Oeste 0 -- -- 63
2019-02-09 12:00:00 13.6 4 Oeste 10 Sudoeste 0 -- -- 71
2019-02-09 11:00:00 12.3 2 Sur 9 Sudeste 0 -- -- 76
2019-02-09 10:00:00 8.6 8 Sudeste 11 Sudeste 0 -- -- 94
2019-02-09 09:00:00 4.1 2 Sudeste 8 Sudeste 0 -- -- 98
2019-02-09 08:00:00 2.9 4 Este 8 Este 0 -- -- 96
2019-02-09 07:00:00 4 3 Este 8 Este 0 -- -- 95
2019-02-09 06:00:00 3.7 5 Este 9 Este 0 -- -- 95
2019-02-09 05:00:00 4.9 2 Este 12 Sudeste 0 -- -- 92
2019-02-09 04:00:00 6.4 11 Sudeste 16 Sudeste 0 -- -- 91
2019-02-09 03:00:00 6.3 3 Sur 15 Sudeste 0 -- -- 90
2019-02-09 02:00:00 5.4 4 Sudeste 9 Sudeste 0 -- -- 92
2019-02-09 01:00:00 5.4 0 Calma 6 Sudeste 0 -- -- 90
2019-02-09 00:00:00 6.6 2 Sur 9 Este 0 -- -- 89
2019-02-08 23:00:00 7.1 3 Sudeste 10 Sudeste 0 -- -- 85
2019-02-08 22:00:00 8.1 5 Sudeste 7 Sudeste 0 -- -- 82
2019-02-08 21:00:00 9.3 2 Sur 4 Sur 0 -- -- 77
2019-02-08 20:00:00 10.6 0 Calma 4 Sudoeste 0 -- -- 72
2019-02-08 19:00:00 14.5 3 Oeste 14 Oeste 0 -- -- 59
2019-02-08 18:00:00 17 12 Oeste 17 Oeste 0 -- -- 49
2019-02-08 17:00:00 18.3 7 Oeste 18 Oeste 0 -- -- 44
2019-02-08 16:00:00 18.4 10 Oeste 17 Oeste 0 -- -- 46
2019-02-08 15:00:00 18.4 9 Oeste 15 Oeste 0 -- -- 46
2019-02-08 14:00:00 17.3 6 Oeste 10 Oeste 0 -- -- 50
2019-02-08 13:00:00 15.5 5 Noroeste 9 Oeste 0 -- -- 56
2019-02-08 12:00:00 14.1 4 Oeste 8 Oeste 0 -- -- 62
2019-02-08 11:00:00 12.1 3 Noroeste 6 Nordeste 0 -- -- 69
2019-02-08 10:00:00 9.2 2 Nordeste 5 Nordeste 0 -- -- 82
2019-02-08 09:00:00 4.9 0 Calma 9 Este 0 -- -- 90
2019-02-08 08:00:00 4.2 6 Sudeste 10 Este 0 -- -- 87
2019-02-08 07:00:00 4.6 6 Sudeste 10 Sudeste 0 -- -- 87
2019-02-08 06:00:00 4.6 7 Sudeste 10 Sudeste 0 -- -- 86
2019-02-08 05:00:00 4.6 3 Sudeste 7 Este 0 -- -- 89
2019-02-08 04:00:00 4.6 2 Este 9 Sudeste 0 -- -- 89
2019-02-08 03:00:00 5.1 2 Este 9 Este 0 -- -- 86
2019-02-08 02:00:00 6.4 4 Este 12 Sudeste 0 -- -- 81
2019-02-08 01:00:00 6.2 5 Sudeste 9 Sudeste 0 -- -- 83
2019-02-08 00:00:00 6.5 4 Este 10 Este 0 -- -- 84
2019-02-07 23:00:00 6.6 6 Sudeste 9 Sudeste 0 -- -- 88
2019-02-07 22:00:00 7.3 3 Sudeste 8 Sudeste 0 -- -- 83
2019-02-07 21:00:00 8.4 5 Este 9 Este 0 -- -- 80
2019-02-07 20:00:00 9.6 4 Sudeste 7 Este 0 -- -- 76
2019-02-07 19:00:00 14.7 0 Calma 10 Noroeste 0 -- -- 55
2019-02-07 18:00:00 17.7 7 Noroeste 14 Oeste 0 -- -- 43
2019-02-07 17:00:00 18.6 9 Noroeste 15 Noroeste 0 -- -- 41
2019-02-07 16:00:00 18.6 7 Noroeste 16 Noroeste 0 -- -- 41
2019-02-07 15:00:00 18.1 8 Noroeste 15 Norte 0 -- -- 51
2019-02-07 14:00:00 17.3 7 Noroeste 14 Noroeste 0 -- -- 54
2019-02-07 13:00:00 16.5 6 Oeste 10 Oeste 0 -- -- 58
2019-02-07 12:00:00 14.4 5 Oeste 9 Norte 0 -- -- 63
2019-02-07 11:00:00 12.3 4 Noroeste 6 Noroeste 0 -- -- 71
2019-02-07 10:00:00 8.9 0 Calma 4 Nordeste 0 -- -- 88
2019-02-07 09:00:00 4.5 5 Este 6 Este 0 -- -- 95
2019-02-07 08:00:00 4.8 0 Calma 7 Este 0 -- -- 93
2019-02-07 07:00:00 5.8 3 Sur 17 Este 0 -- -- 88
2019-02-07 06:00:00 5.4 3 Sur 11 Sudeste 0 -- -- 92
2019-02-07 05:00:00 5.3 4 Este 7 Este 0 -- -- 92
2019-02-07 04:00:00 6 2 Este 13 Sudeste 0 -- -- 89
2019-02-07 03:00:00 7.4 10 Sudeste 15 Sudeste 0 -- -- 83
2019-02-07 02:00:00 7.3 2 Sudeste 13 Sudeste 0 -- -- 85
2019-02-07 01:00:00 6.8 0 Calma 12 Sudeste 0 -- -- 86
2019-02-07 00:00:00 7.1 8 Sudeste 10 Sudeste 0 -- -- 86
2019-02-06 23:00:00 7.4 2 Sur 5 Sur 0 -- -- 84
2019-02-06 22:00:00 7.7 0 Calma 3 Sur 0 -- -- 81
2019-02-06 21:00:00 9.3 2 Sur 5 Sudeste 0 -- -- 75
2019-02-06 20:00:00 11.6 0 Calma 5 Sudoeste 0 -- -- 67
2019-02-06 19:00:00 15.2 5 Sudoeste 14 Oeste 0 -- -- 53
2019-02-06 18:00:00 18.5 8 Oeste 18 Oeste 0 -- -- 44
2019-02-06 17:00:00 19.5 11 Oeste 18 Oeste 0 -- -- 41
2019-02-06 16:00:00 20 10 Oeste 18 Oeste 0 -- -- 34
2019-02-06 15:00:00 20.8 5 Sudoeste 17 Sudoeste 0 -- -- 27
2019-02-06 14:00:00 19.2 3 Sudeste 9 Sur 0 -- -- 37
2019-02-06 13:00:00 16.6 4 Noroeste 8 Oeste 0 -- -- 49
2019-02-06 12:00:00 14.3 4 Noroeste 6 Noroeste 0 -- -- 58
2019-02-06 11:00:00 11.8 2 Norte 5 Sudeste 0 -- -- 66
2019-02-06 10:00:00 10 0 Calma 5 Este 0 -- -- 76
2019-02-06 09:00:00 5 3 Este 11 Este 0 -- -- 88
2019-02-06 08:00:00 3.5 2 Sudeste 13 Este 0 -- -- 87
2019-02-06 07:00:00 3.3 2 Este 10 Sudeste 0 -- -- 87
2019-02-06 06:00:00 4.9 8 Sudeste 12 Sudeste 0 -- -- 83
2019-02-06 05:00:00 5.4 3 Este 10 Sudeste 0 -- -- 81
2019-02-06 04:00:00 5.6 3 Sudeste 8 Sudeste 0 -- -- 81
2019-02-06 03:00:00 5.7 3 Este 9 Este 0 -- -- 81
2019-02-06 02:00:00 6.3 4 Sudeste 6 Sudeste 0 -- -- 78
2019-02-06 01:00:00 7 0 Calma 6 Este 0 -- -- 75
2019-02-06 00:00:00 7 0 Calma 8 Sudeste 0 -- -- 74
2019-02-05 23:00:00 7.4 6 Este 8 Este 0 -- -- 74
2019-02-05 22:00:00 8 2 Este 10 Este 0 -- -- 72
2019-02-05 21:00:00 9 4 Este 6 Este 0 -- -- 67
2019-02-05 20:00:00 10.7 3 Este 5 Este 0 -- -- 63
2019-02-05 19:00:00 15.5 2 Este 9 Noroeste 0 -- -- 47
2019-02-05 18:00:00 18.1 6 Norte 16 Nordeste 0 -- -- 38
2019-02-05 17:00:00 18.3 10 Norte 18 Nordeste 0 -- -- 35
2019-02-05 16:00:00 18.1 11 Norte 21 Norte 0 -- -- 36
2019-02-05 15:00:00 17.9 10 Norte 18 Norte 0 -- -- 38
2019-02-05 14:00:00 16.2 4 Norte 14 Norte 0 -- -- 42
2019-02-05 13:00:00 14.5 6 Noroeste 10 Norte 0 -- -- 50
2019-02-05 12:00:00 12.2 5 Noroeste 8 Noroeste 0 -- -- 53
2019-02-05 11:00:00 9.6 2 Noroeste 5 Oeste 0 -- -- 57
2019-02-05 10:00:00 5.8 2 Noroeste 4 Norte 0 -- -- 76
2019-02-05 09:00:00 2.7 5 Sudeste 8 Sudeste 0 -- -- 86
2019-02-05 08:00:00 2 3 Este 6 Este 0 -- -- 83
2019-02-05 07:00:00 1.4 3 Este 7 Este 0 -- -- 85
2019-02-05 06:00:00 1.9 3 Este 8 Este 0 -- -- 86
2019-02-05 05:00:00 1.6 2 Este 8 Sudeste 0 -- -- 89
2019-02-05 04:00:00 1.4 0 Calma 6 Sudeste 0 -- -- 90
2019-02-05 03:00:00 2.4 0 Calma 7 Este 0 -- -- 84
2019-02-05 02:00:00 3 3 Sudeste 9 Este 0 -- -- 84
2019-02-05 01:00:00 2.5 2 Sudeste 7 Este 0 -- -- 81
2019-02-05 00:00:00 3.1 5 Este 8 Este 0 -- -- 78
2019-02-04 23:00:00 3.4 4 Sudeste 7 Sudeste 0 -- -- 78
2019-02-04 22:00:00 6.5 0 Calma 11 Este 0 -- -- 55
2019-02-04 21:00:00 6.8 4 Este 11 Este 0 -- -- 62
2019-02-04 20:00:00 8 6 Este 9 Norte 0 -- -- 62
2019-02-04 19:00:00 10.7 0 Calma 14 Norte 0 -- -- 52
2019-02-04 18:00:00 13.6 9 Norte 19 Nordeste 0 -- -- 39
2019-02-04 17:00:00 14.4 12 Norte 21 Norte 0 -- -- 36
2019-02-04 16:00:00 14.2 11 Norte 18 Nordeste 0 -- -- 39
2019-02-04 15:00:00 13.8 8 Norte 18 Norte 0 -- -- 43
2019-02-04 14:00:00 13.1 9 Noroeste 15 Norte 0 -- -- 45
2019-02-04 13:00:00 11.1 6 Noroeste 12 Noroeste 0 -- -- 52
2019-02-04 12:00:00 8.7 7 Norte 13 Nordeste 0 -- -- 61
2019-02-04 11:00:00 6 7 Norte 12 Norte 0 -- -- 68
2019-02-04 10:00:00 3.9 3 Norte 9 Nordeste 0 -- -- 73
2019-02-04 09:00:00 -0.3 0 Calma 6 Este 0 -- -- 90
2019-02-04 08:00:00 -1.6 2 Nordeste 10 Este 0 -- -- 91
2019-02-04 07:00:00 -1.9 4 Este 6 Este 0 -- -- 89
2019-02-04 06:00:00 -1 0 Calma 4 Oeste 0 -- -- 86
2019-02-04 05:00:00 0.6 0 Calma 9 Este 0 -- -- 81
2019-02-04 04:00:00 1.3 5 Este 10 Este 0 -- -- 78
2019-02-04 03:00:00 1.4 0 Calma 10 Este 0 -- -- 81
2019-02-04 02:00:00 1 4 Este 9 Este 0 -- -- 83
2019-02-04 01:00:00 0.6 4 Este 9 Este 0 -- -- 86
2019-02-04 00:00:00 1.4 2 Sur 9 Sudeste 0 -- -- 87
2019-02-03 23:00:00 1.3 3 Sudeste 8 Sudeste 0 -- -- 86
2019-02-03 22:00:00 2.2 0 Calma 6 Este 0 -- -- 82
2019-02-03 21:00:00 4.2 4 Este 5 Sudeste 0 -- -- 73
2019-02-03 20:00:00 5.9 3 Este 6 Nordeste 0 -- -- 66
2019-02-03 19:00:00 8.8 3 Norte 17 Norte 0 -- -- 53
2019-02-03 18:00:00 10.9 12 Norte 22 Norte 0 -- -- 43
2019-02-03 17:00:00 11.4 13 Norte 27 Nordeste 0 -- -- 42
2019-02-03 16:00:00 11.1 14 Norte 27 Norte 0 -- -- 42
2019-02-03 15:00:00 10.7 13 Nordeste 26 Norte 0 -- -- 44
2019-02-03 14:00:00 10.2 15 Norte 29 Nordeste 0 -- -- 46
2019-02-03 13:00:00 9.3 10 Norte 20 Norte 0 -- -- 60
2019-02-03 12:00:00 7.7 8 Noroeste 14 Norte 0 -- -- 63
2019-02-03 11:00:00 5.6 6 Noroeste 11 Norte 0 -- -- 70
2019-02-03 10:00:00 3 0 Calma 6 Este 0 -- -- 89
2019-02-03 09:00:00 -0.7 2 Sudeste 8 Este 0 -- -- 97
2019-02-03 08:00:00 -1.6 3 Sudeste 6 Este 0 -- -- 94
2019-02-03 07:00:00 -1.3 4 Sudeste 6 Sudeste 0 -- -- 92
2019-02-03 06:00:00 -0.4 5 Sudeste 7 Sudeste 0 -- -- 92
2019-02-03 05:00:00 -0.4 3 Sur 8 Sudeste 0 -- -- 90
2019-02-03 04:00:00 0 3 Sudoeste 6 Sur 0 -- -- 88
2019-02-03 03:00:00 -0.2 2 Sur 4 Sur 0 -- -- 89
2019-02-03 02:00:00 1.1 0 Calma 7 Sudeste 0 -- -- 86
2019-02-03 01:00:00 1.9 0 Calma 5 Sudoeste 0 -- -- 87
2019-02-03 00:00:00 2.4 0 Calma 6 Este 0 -- -- 80
2019-02-02 23:00:00 4.5 3 Sur 19 Noroeste 0 -- -- 72
2019-02-02 22:00:00 6 13 Noroeste 19 Noroeste 0 -- -- 66
2019-02-02 21:00:00 6.9 12 Noroeste 22 Noroeste 0 -- -- 63
2019-02-02 20:00:00 7.6 16 Noroeste 23 Noroeste 0 -- -- 61
2019-02-02 19:00:00 8.1 10 Noroeste 26 Noroeste 0 -- -- 63
2019-02-02 18:00:00 10.5 17 Noroeste 43 Oeste 0 -- -- 53
2019-02-02 17:00:00 11.2 28 Noroeste 39 Oeste 0 -- -- 50
2019-02-02 16:00:00 11.5 23 Oeste 39 Oeste 0 -- -- 50
2019-02-02 15:00:00 10.9 21 Oeste 32 Oeste 0 -- -- 53
2019-02-02 14:00:00 11 20 Noroeste 35 Oeste 0 -- -- 52
2019-02-02 13:00:00 10.2 24 Oeste 43 Oeste 0 -- -- 57
2019-02-02 12:00:00 9 26 Oeste 40 Oeste 0 -- -- 58
2019-02-02 11:00:00 8.1 20 Oeste 30 Oeste 0 -- -- 77
2019-02-02 10:00:00 6.6 16 Oeste 33 Sudoeste 0 -- -- 89
2019-02-02 09:00:00 6.2 19 Oeste 32 Oeste 0 -- -- 93
2019-02-02 08:00:00 6.4 15 Sudoeste 29 Sudoeste 0 -- -- 91
2019-02-02 07:00:00 6.6 18 Sudoeste 35 Sudoeste 0 -- -- 90
2019-02-02 06:00:00 6.9 20 Sudoeste 36 Sudoeste 0 -- -- 89
2019-02-02 05:00:00 6.9 21 Sudoeste 45 Sudoeste 0 -- -- 89
2019-02-02 04:00:00 6.6 21 Sudoeste 36 Sudoeste 0 -- -- 89
2019-02-02 03:00:00 6.3 17 Sudoeste 35 Sudoeste 0 -- -- 90
2019-02-02 02:00:00 6 13 Sudoeste 30 Sudoeste 0 -- -- 88
2019-02-02 01:00:00 5.8 22 Sudoeste 35 Sudoeste 0 -- -- 86
2019-02-02 00:00:00 6.2 21 Sudoeste 33 Sudoeste 0 -- -- 83
2019-02-01 23:00:00 7.2 16 Sudoeste 36 Sudoeste 0 -- -- 84
2019-02-01 22:00:00 7.7 21 Sudoeste 34 Sudoeste 0 -- -- 85
2019-02-01 21:00:00 7.4 18 Sudoeste 32 Sudoeste 0 -- -- 85
2019-02-01 20:00:00 7.4 17 Sudoeste 35 Oeste 0 -- -- 88
2019-02-01 19:00:00 7.3 21 Sudoeste 75 Oeste 0.8 -- -- 93
2019-02-01 18:00:00 10.7 23 Sudoeste 49 Sudoeste 0 -- -- 82
2019-02-01 17:00:00 11.8 36 Sudoeste 54 Oeste 0 -- -- 69
2019-02-01 16:00:00 12 25 Sudoeste 46 Sudoeste 0 -- -- 69
2019-02-01 15:00:00 12.1 24 Sudoeste 44 Sudoeste 0 -- -- 72
2019-02-01 14:00:00 12.8 33 Oeste 55 Sudoeste 0 -- -- 65
2019-02-01 13:00:00 11.2 27 Oeste 49 Oeste 0 -- -- 84
2019-02-01 12:00:00 9.4 27 Oeste 45 Oeste 0.8 -- -- 96
2019-02-01 11:00:00 10.7 24 Oeste 42 Oeste 0 -- -- 90
2019-02-01 10:00:00 10 20 Oeste 33 Sudoeste 0 -- -- 98
2019-02-01 09:00:00 10.5 19 Oeste 57 Oeste 1.4 -- -- 99
2019-02-01 08:00:00 12.1 30 Sudoeste 61 Sudoeste 2.4 -- -- 99
2019-02-01 07:00:00 12.4 33 Sudoeste 62 Sudoeste 3.8 -- -- 98
2019-02-01 06:00:00 12.4 39 Sudoeste 67 Sudoeste 5.6 -- -- 98
2019-02-01 05:00:00 12.4 25 Sudoeste 49 Sur 6.6 -- -- 98
2019-02-01 04:00:00 12.6 27 Sudoeste 46 Sudoeste 1.4 -- -- 97
2019-02-01 03:00:00 12.1 22 Sur 36 Sudoeste 1 -- -- 97
2019-02-01 02:00:00 12 19 Sur 46 Sudoeste 0.6 -- -- 95
2019-02-01 01:00:00 12.5 26 Sudoeste 51 Sudoeste 0 -- -- 93
2019-02-01 00:00:00 12.4 21 Sur 36 Sur 0 -- -- 92
2019-01-31 23:00:00 12 21 Sur 35 Sudoeste 0 -- -- 93
2019-01-31 22:00:00 11.5 15 Sur 27 Sur 0.2 -- -- 96
2019-01-31 21:00:00 11.4 14 Sur 36 Sudoeste 0.6 -- -- 97
2019-01-31 20:00:00 11.6 16 Sudoeste 32 Sudoeste 0.8 -- -- 96
2019-01-31 19:00:00 11.8 17 Sur 37 Sudoeste 0 -- -- 94
2019-01-31 18:00:00 13.3 26 Sudoeste 46 Sudoeste 0 -- -- 83
2019-01-31 17:00:00 14.1 25 Sudoeste 49 Sudoeste 0 -- -- 78
2019-01-31 16:00:00 15.2 27 Sudoeste 54 Sudoeste 0 -- -- 75
2019-01-31 15:00:00 14.7 28 Sudoeste 46 Sudoeste 0 -- -- 78
2019-01-31 14:00:00 14.8 22 Sudoeste 39 Sudoeste 0 -- -- 86
2019-01-31 13:00:00 12.2 21 Sudoeste 37 Sudoeste 0 -- -- 96
2019-01-31 12:00:00 12 23 Sudoeste 37 Sudoeste 0.6 -- -- 98
2019-01-31 11:00:00 11.6 21 Sudoeste 35 Sudoeste 0 -- -- 98
2019-01-31 10:00:00 11.6 22 Sudoeste 37 Sudoeste 0 -- -- 98
2019-01-31 09:00:00 11.4 21 Sudoeste 46 Sudoeste 0.4 -- -- 98
2019-01-31 08:00:00 11.4 17 Sudoeste 38 Oeste 0 -- -- 99
2019-01-31 07:00:00 11.3 19 Sudoeste 32 Sudoeste 0 -- -- 99
2019-01-31 06:00:00 11.1 21 Sudoeste 38 Sudoeste 0 -- -- 99
2019-01-31 05:00:00 10.9 24 Sudoeste 43 Sudoeste 0.4 -- -- 98
2019-01-31 04:00:00 10.8 22 Sudoeste 37 Sudoeste 1 -- -- 98
2019-01-31 03:00:00 10.9 22 Sudoeste 39 Sudoeste 2 -- -- 98
2019-01-31 02:00:00 11 17 Sudoeste 32 Sudoeste 1.2 -- -- 98
2019-01-31 01:00:00 10.9 15 Sudoeste 30 Sudoeste 0.4 -- -- 98
2019-01-31 00:00:00 10.6 15 Sudoeste 27 Sudoeste 0.2 -- -- 97
2019-01-30 23:00:00 9.9 12 Sur 21 Sur 0 -- -- 97
2019-01-30 22:00:00 9.2 13 Sudeste 21 Sudeste 0.2 -- -- 96
2019-01-30 21:00:00 8.9 8 Sur 15 Sur 0.4 -- -- 96
2019-01-30 20:00:00 8.8 7 Sudoeste 29 Sudoeste 0.8 -- -- 95
2019-01-30 19:00:00 9.2 16 Sudoeste 36 Sudoeste 0.4 -- -- 91
2019-01-30 18:00:00 10.9 15 Sudoeste 38 Sudoeste 0 -- -- 81
2019-01-30 17:00:00 13.5 19 Oeste 37 Sudoeste 0 -- -- 63
2019-01-30 16:00:00 13.4 17 Oeste 27 Oeste 0 -- -- 60
2019-01-30 15:00:00 13.5 12 Oeste 20 Oeste 0 -- -- 60
2019-01-30 14:00:00 13.4 15 Oeste 23 Oeste 0 -- -- 60
2019-01-30 13:00:00 12.1 17 Noroeste 28 Oeste 0 -- -- 64
2019-01-30 12:00:00 11.9 13 Oeste 32 Oeste 0 -- -- 68
2019-01-30 11:00:00 10.9 11 Oeste 21 Oeste 0 -- -- 78
2019-01-30 10:00:00 9.1 11 Oeste 16 Noroeste 0 -- -- 96
2019-01-30 09:00:00 8.8 9 Oeste 22 Oeste 0 -- -- 97
2019-01-30 08:00:00 9.1 10 Oeste 21 Oeste 0 -- -- 96
2019-01-30 07:00:00 9.3 17 Oeste 26 Oeste 0 -- -- 95
2019-01-30 06:00:00 9.2 11 Oeste 22 Oeste 0 -- -- 95
2019-01-30 05:00:00 9.2 12 Sudoeste 26 Sudoeste 0 -- -- 94
2019-01-30 04:00:00 9.2 18 Sudoeste 31 Sudoeste 0 -- -- 92
2019-01-30 03:00:00 9.6 13 Oeste 27 Sudoeste 0 -- -- 90
2019-01-30 02:00:00 9.9 12 Sudoeste 26 Sudoeste 0 -- -- 87
2019-01-30 01:00:00 10.3 15 Oeste 32 Oeste 0 -- -- 85
2019-01-30 00:00:00 10.6 14 Sudoeste 24 Oeste 0 -- -- 87
2019-01-29 23:00:00 10.9 11 Oeste 18 Oeste 0 -- -- 86
2019-01-29 22:00:00 11 11 Sudoeste 23 Sudoeste 0 -- -- 83
2019-01-29 21:00:00 11.5 10 Oeste 26 Sudoeste 0 -- -- 83
2019-01-29 20:00:00 11.9 12 Oeste 22 Oeste 0 -- -- 72
2019-01-29 19:00:00 12.1 16 Oeste 24 Sudoeste 0 -- -- 71
2019-01-29 18:00:00 11.7 9 Sudoeste 22 Sudoeste 0 -- -- 80
2019-01-29 17:00:00 12 12 Sudoeste 26 Oeste 0 -- -- 75
2019-01-29 16:00:00 12.2 17 Oeste 30 Sudoeste 0 -- -- 74
2019-01-29 15:00:00 11.7 16 Sudoeste 29 Sudoeste 0 -- -- 74
2019-01-29 14:00:00 11.6 18 Oeste 31 Sudoeste 0 -- -- 76
2019-01-29 13:00:00 12.6 15 Oeste 28 Oeste 0 -- -- 73
2019-01-29 12:00:00 9.8 15 Oeste 22 Oeste 0 -- -- 85
2019-01-29 11:00:00 8.1 12 Sudoeste 22 Sudoeste 0 -- -- 98
2019-01-29 10:00:00 7.5 11 Sudoeste 20 Sudoeste 0 -- -- 98
2019-01-29 09:00:00 7.2 6 Sudoeste 14 Sudoeste 0 -- -- 98
2019-01-29 08:00:00 7.5 6 Oeste 14 Oeste 0 -- -- 97
2019-01-29 07:00:00 7.2 3 Sudoeste 9 Sudoeste 0 -- -- 96
2019-01-29 06:00:00 7.4 4 Oeste 10 Sudoeste 0 -- -- 95
2019-01-29 05:00:00 8 5 Sudoeste 13 Oeste 0 -- -- 95
2019-01-29 04:00:00 7.8 6 Sudoeste 9 Sudoeste 0 -- -- 95
2019-01-29 03:00:00 7.6 4 Oeste 14 Sudoeste 0 -- -- 94
2019-01-29 02:00:00 6.2 0 Calma 10 Sudoeste 0 -- -- 91
2019-01-29 01:00:00 6.9 3 Oeste 12 Sudoeste 0 -- -- 88
2019-01-29 00:00:00 7 3 Sudeste 13 Sudoeste 0 -- -- 87
2019-01-28 23:00:00 8.4 4 Oeste 13 Oeste 0 -- -- 83
2019-01-28 22:00:00 8.9 3 Sudoeste 17 Oeste 0 -- -- 80
2019-01-28 21:00:00 9.4 5 Oeste 10 Oeste 0 -- -- 79
2019-01-28 20:00:00 10.2 5 Sudoeste 30 Oeste 0 -- -- 77
2019-01-28 19:00:00 11.6 22 Oeste 30 Oeste 0 -- -- 71
2019-01-28 18:00:00 11.9 20 Oeste 35 Sudoeste 0 -- -- 66
2019-01-28 17:00:00 13 22 Oeste 32 Sudoeste 0 -- -- 61
2019-01-28 16:00:00 13.7 20 Oeste 34 Oeste 0 -- -- 58
2019-01-28 15:00:00 12.7 20 Sudoeste 32 Sudoeste 0 -- -- 59
2019-01-28 14:00:00 12.2 14 Oeste 26 Oeste 0 -- -- 61
2019-01-28 13:00:00 10.7 8 Sudoeste 16 Sudoeste 0 -- -- 64
2019-01-28 12:00:00 8.6 8 Oeste 14 Oeste 0 -- -- 73
2019-01-28 11:00:00 7.5 4 Sudoeste 9 Sur 0 -- -- 80
2019-01-28 10:00:00 5 0 Calma 9 Sudeste 0 -- -- 98
2019-01-28 09:00:00 1.8 3 Sur 13 Sudeste 0 -- -- 98
2019-01-28 08:00:00 0.8 0 Calma 9 Sudeste 0 -- -- 96
2019-01-28 07:00:00 0.9 4 Este 8 Sudeste 0 -- -- 96
2019-01-28 06:00:00 1.6 2 Sudeste 7 Sudeste 0 -- -- 94
2019-01-28 05:00:00 1.4 3 Sudeste 7 Sudeste 0 -- -- 94
2019-01-28 04:00:00 2 2 Sudeste 6 Sudoeste 0 -- -- 92
2019-01-28 03:00:00 3.2 5 Sur 10 Sur 0 -- -- 91
2019-01-28 02:00:00 3 3 Sur 6 Sudoeste 0 -- -- 90
2019-01-28 01:00:00 3.4 3 Sudeste 6 Sudoeste 0 -- -- 88
2019-01-28 00:00:00 3.8 3 Sur 4 Sur 0 -- -- 88
2019-01-27 23:00:00 4.4 2 Sur 7 Sudoeste 0 -- -- 85
2019-01-27 22:00:00 6 0 Calma 9 Oeste 0 -- -- 79
2019-01-27 21:00:00 6.8 2 Noroeste 8 Norte 0 -- -- 78
2019-01-27 20:00:00 8.9 5 Noroeste 17 Noroeste 0 -- -- 73
2019-01-27 19:00:00 11 11 Noroeste 21 Oeste 0 -- -- 66
2019-01-27 18:00:00 12 14 Noroeste 22 Noroeste 0 -- -- 65
2019-01-27 17:00:00 12.5 6 Oeste 18 Sudoeste 0 -- -- 71
2019-01-27 16:00:00 12.2 14 Oeste 26 Sudoeste 0 -- -- 71
2019-01-27 15:00:00 13 16 Oeste 29 Oeste 0 -- -- 70
2019-01-27 14:00:00 12.2 15 Oeste 27 Sudoeste 0 -- -- 78
2019-01-27 13:00:00 10.7 14 Oeste 21 Oeste 0 -- -- 87
2019-01-27 12:00:00 9.8 13 Sudoeste 28 Sudoeste 0 -- -- 92
2019-01-27 11:00:00 9.6 18 Oeste 28 Sudoeste 0 -- -- 94
2019-01-27 10:00:00 9.8 6 Sudoeste 12 Sudoeste 0 -- -- 94
2019-01-27 09:00:00 9.1 0 Calma 12 Sudeste 0 -- -- 94
2019-01-27 08:00:00 9.3 9 Sudeste 14 Sudeste 0 -- -- 94
2019-01-27 07:00:00 9.2 4 Sudeste 9 Sudeste 0 -- -- 94
2019-01-27 06:00:00 9.5 5 Sur 14 Sur 0 -- -- 94
2019-01-27 05:00:00 9.6 6 Sudoeste 19 Sudoeste 0 -- -- 95
2019-01-27 04:00:00 9.5 7 Sudoeste 12 Sudoeste 0 -- -- 96
2019-01-27 03:00:00 9.4 6 Sudoeste 12 Sudoeste 0 -- -- 96
2019-01-27 02:00:00 9.6 10 Sudoeste 17 Oeste 0 -- -- 96
2019-01-27 01:00:00 10 4 Sudoeste 13 Sudoeste 0 -- -- 96
2019-01-27 00:00:00 9.7 6 Sudoeste 16 Sudoeste 0 -- -- 94
2019-01-26 23:00:00 8.6 4 Sur 8 Sudoeste 0 -- -- 81
2019-01-26 22:00:00 8.5 0 Calma 7 Sudoeste 0 -- -- 77
2019-01-26 21:00:00 9.6 3 Sur 6 Sudoeste 0 -- -- 72
2019-01-26 20:00:00 11.6 3 Sur 6 Sur 0 -- -- 63
2019-01-26 19:00:00 14 4 Sudoeste 12 Oeste 0 -- -- 55
2019-01-26 18:00:00 18 8 Sudoeste 14 Oeste 0 -- -- 44
2019-01-26 17:00:00 18.9 8 Oeste 14 Oeste 0 -- -- 45
2019-01-26 16:00:00 19 4 Noroeste 12 Norte 0 -- -- 43
2019-01-26 15:00:00 18.4 6 Norte 11 Nordeste 0 -- -- 44
2019-01-26 14:00:00 17.7 5 Norte 15 Norte 0 -- -- 47
2019-01-26 13:00:00 16 6 Noroeste 9 Norte 0 -- -- 55
2019-01-26 12:00:00 13.9 6 Norte 9 Noroeste 0 -- -- 60
2019-01-26 11:00:00 11.1 0 Calma 4 Noroeste 0 -- -- 70
2019-01-26 10:00:00 7.5 0 Calma 9 Este 0 -- -- 83
2019-01-26 09:00:00 3.3 5 Este 7 Este 0 -- -- 92
2019-01-26 08:00:00 3.8 3 Sudoeste 10 Sudoeste 0 -- -- 92
2019-01-26 07:00:00 4.5 6 Sudeste 12 Este 0 -- -- 89
2019-01-26 06:00:00 4.5 4 Este 10 Nordeste 0 -- -- 85
2019-01-26 05:00:00 5 6 Nordeste 9 Nordeste 0 -- -- 90
2019-01-26 04:00:00 4.6 4 Este 10 Sudeste 0 -- -- 88
2019-01-26 03:00:00 5.6 5 Este 14 Sudeste 0 -- -- 86
2019-01-26 02:00:00 7.4 0 Calma 8 Sudeste 0 -- -- 81
2019-01-26 01:00:00 7.9 3 Nordeste 11 Este 0 -- -- 80
2019-01-26 00:00:00 7.7 0 Calma 6 Nordeste 0 -- -- 83
2019-01-25 23:00:00 8.9 2 Nordeste 12 Nordeste 0 -- -- 78
2019-01-25 22:00:00 9.5 6 Este 13 Este 0 -- -- 76
2019-01-25 21:00:00 10.8 11 Este 16 Este 0 -- -- 72
2019-01-25 20:00:00 11.2 9 Este 14 Nordeste 0 -- -- 70
2019-01-25 19:00:00 13.2 2 Este 13 Nordeste 0 -- -- 64
2019-01-25 18:00:00 16.3 11 Nordeste 24 Nordeste 0 -- -- 52
2019-01-25 17:00:00 17.3 14 Nordeste 26 Norte 0 -- -- 50
2019-01-25 16:00:00 17.8 13 Norte 27 Nordeste 0 -- -- 47
2019-01-25 15:00:00 17.6 13 Norte 26 Norte 0 -- -- 54
2019-01-25 14:00:00 15.9 14 Norte 26 Norte 0 -- -- 65
2019-01-25 13:00:00 15.4 16 Norte 24 Norte 0 -- -- 65
2019-01-25 12:00:00 15 15 Nordeste 28 Nordeste 0 -- -- 65
2019-01-25 11:00:00 11.9 8 Norte 12 Norte 0 -- -- 85
2019-01-25 10:00:00 8 0 Calma 3 Sudoeste 0 -- -- 98
2019-01-25 09:00:00 5.4 0 Calma 5 Este 0 -- -- 98
2019-01-25 08:00:00 4.6 3 Este 8 Este 0 -- -- 97
2019-01-25 07:00:00 5.5 3 Este 9 Sudeste 0 -- -- 97
2019-01-25 06:00:00 5.6 3 Sudeste 8 Sudeste 0 -- -- 97
2019-01-25 05:00:00 6.3 3 Sudeste 10 Sudeste 0 -- -- 96
2019-01-25 04:00:00 6.7 2 Este 17 Sudeste 0 -- -- 95
2019-01-25 03:00:00 6.7 6 Sudeste 15 Sudeste 0 -- -- 96
2019-01-25 02:00:00 6.3 6 Este 9 Este 0 -- -- 93
2019-01-25 01:00:00 7.8 0 Calma 12 Sudeste 0 -- -- 90
2019-01-25 00:00:00 8.1 3 Sudeste 12 Este 0 -- -- 90
2019-01-24 23:00:00 9.2 11 Sudeste 14 Este 0 -- -- 88
2019-01-24 22:00:00 8.9 10 Sudeste 17 Sudeste 0 -- -- 90
2019-01-24 21:00:00 8.2 4 Este 12 Sudeste 0 -- -- 90
2019-01-24 20:00:00 9.7 6 Sudeste 12 Sudeste 0 -- -- 86
2019-01-24 19:00:00 12.5 4 Sudeste 5 Sudeste 0 -- -- 74
2019-01-24 18:00:00 16.1 0 Calma 8 Oeste 0 -- -- 61
2019-01-24 17:00:00 15.8 4 Sudoeste 10 Nordeste 0 -- -- 62
2019-01-24 16:00:00 15.1 4 Este 13 Noroeste 0 -- -- 65
2019-01-24 15:00:00 15.3 8 Oeste 14 Sudoeste 0 -- -- 64
2019-01-24 14:00:00 13.2 9 Oeste 19 Oeste 0 -- -- 73
2019-01-24 13:00:00 13.2 15 Oeste 23 Oeste 0 -- -- 77
2019-01-24 12:00:00 11.5 7 Oeste 14 Sudoeste 0 -- -- 87
2019-01-24 11:00:00 10.3 8 Oeste 15 Oeste 0 -- -- 93
2019-01-24 10:00:00 9.8 9 Oeste 15 Oeste 0 -- -- 95
2019-01-24 09:00:00 9.5 10 Oeste 17 Sudoeste 0 -- -- 95
2019-01-24 08:00:00 9.5 5 Oeste 13 Oeste 0 -- -- 94
2019-01-24 07:00:00 9.6 8 Oeste 19 Oeste 0 -- -- 94
2019-01-24 06:00:00 9.8 16 Oeste 22 Oeste 0 -- -- 93
2019-01-24 05:00:00 9.9 14 Oeste 24 Oeste 0 -- -- 92
2019-01-24 04:00:00 10 13 Oeste 21 Oeste 0 -- -- 91
2019-01-24 03:00:00 10 13 Oeste 22 Sudoeste 0 -- -- 90
2019-01-24 02:00:00 10.2 13 Oeste 28 Sudoeste 0 -- -- 88
2019-01-24 01:00:00 10.2 17 Oeste 26 Oeste 0 -- -- 87
2019-01-24 00:00:00 10.2 14 Oeste 26 Oeste 0 -- -- 84